Location: Lugano
(46.0000°N, 8.9670°E)
Time: 19:02:26
(UTC+02:00)

KKS-1 - Visible Passes

Search period start: 18 April 2026 00:00
Search period end: 28 April 2026 00:00
Orbit: 614 x 626 km, 98.1° (Epoch: 18 April)

Date Brightness Start Highest point End Pass type
(mag) Time Alt. Az. Time Alt. Az. Time Alt. Az.
18 Apr ? 01:04:39 10° NE 01:05:11 12° NE 01:05:11 12° NE visible
18 Apr ? 02:40:04 10° N 02:42:21 27° NNW 02:42:21 27° NNW visible
19 Apr ? 01:21:26 10° NE 01:22:42 17° NE 01:22:42 17° NE visible
19 Apr ? 02:57:33 10° N 02:59:52 24° NW 02:59:52 24° NW visible
20 Apr ? 01:38:24 10° NNE 01:40:13 23° NE 01:40:13 23° NE visible
20 Apr ? 03:15:11 10° NNW 03:17:23 19° NW 03:17:23 19° NW visible
21 Apr ? 01:55:31 10° NNE 01:57:44 29° NNE 01:57:44 29° NNE visible
21 Apr ? 03:33:04 10° NNW 03:34:54 14° NW 03:34:54 14° NW visible
22 Apr ? 02:12:43 10° NNE 02:15:15 35° N 02:15:15 35° N visible
23 Apr ? 00:55:08 10° NE 00:55:36 12° ENE 00:55:36 12° ENE visible
23 Apr ? 02:30:02 10° N 02:32:46 35° NNW 02:32:46 35° NNW visible
24 Apr ? 01:11:43 10° NE 01:13:06 17° NE 01:13:06 17° NE visible
24 Apr ? 02:47:26 10° N 02:50:16 30° NW 02:50:16 30° NW visible
25 Apr ? 01:28:35 10° NNE 01:30:37 23° NE 01:30:37 23° NE visible
25 Apr ? 03:04:57 10° N 03:07:47 24° NW 03:07:47 24° NW visible
26 Apr ? 01:45:36 10° NNE 01:48:07 32° NE 01:48:07 32° NE visible
26 Apr ? 03:22:39 10° NNW 03:25:17 18° WNW 03:25:17 18° WNW visible
27 Apr ? 02:02:44 10° NNE 02:05:37 41° NNE 02:05:37 41° NNE visible
27 Apr ? 03:40:42 10° NNW 03:42:33 13° WNW 03:42:47 13° WNW visible
